This demonstration page uses our WeatherBlox Daily Observations layout. Learn more.

Left ArrowRight Arrow

40.92945, -100.16068

Hourly Observations for November 6, 2015

Temp ( °F °C ) Dew Point ( °F °C ) Humidity (%) Winds ( mph kmh ) Pressure ( in mb ) Visibility ( mi km ) Precip ( " mm )
12:15 am 00:15 Clear 33 0.5 32 -0.1 96 96 NW 5 7 30.12 1020 10 16 N/A
12:35 am 00:35 Clear 34 0.9 32 undefined 94 94 NW 3 6 30.12 1020 10 16 N/A
12:55 am 00:55 Clear 32 -0.1 31 -0.8 95 95 NW 7 11 30.15 1021 10 16 N/A
1:15 am 01:15 Clear 32 undefined 31 -0.5 96 96 NW 6 9 30.15 1021 10 16 N/A
1:35 am 01:35 Clear 32 undefined 31 -0.6 96 96 NW 3 6 30.15 1021 10 16 N/A
1:55 am 01:55 Clear 32 undefined 31 -0.5 96 96 N N/A 30.15 1021 10 16 N/A
2:15 am 02:15 Clear 31 -0.4 30 -1.2 94 94 NW 3 6 30.15 1021 10 16 N/A
2:35 am 02:35 Clear 31 -0.5 30 -1.1 96 96 WNW 3 6 30.15 1021 10 16 N/A
2:55 am 02:55 Clear 31 -0.3 30 -1 95 95 W 6 9 30.15 1021 10 16 N/A
3:15 am 03:15 Clear 31 -0.5 30 -1.1 96 96 W 5 7 30.15 1021 10 16 N/A
3:35 am 03:35 Clear 31 -0.3 30 -1 95 95 W 6 9 30.15 1021 10 16 N/A
3:55 am 03:55 Clear 31 -0.5 30 -1.3 94 94 W 7 11 30.15 1021 10 16 N/A
4:15 am 04:15 Clear 31 -0.3 30 -1.1 94 94 W 3 6 30.15 1021 10 16 N/A
4:35 am 04:35 Clear 31 -0.5 30 -1.2 95 95 W 5 7 30.15 1021 10 16 N/A
4:55 am 04:55 Clear 32 -0.2 30 -1 94 94 W 6 9 30.18 1022 10 16 N/A
5:15 am 05:15 Clear 31 -0.3 30 -1.1 94 94 WNW 6 9 30.18 1022 10 16 N/A
5:35 am 05:35 Clear 31 -0.5 30 -1.2 95 95 WNW 3 6 30.18 1022 10 16 N/A
5:55 am 05:55 Clear 30 -1.2 28 -2.1 94 94 NW 6 9 30.21 1023 10 16 N/A
6:15 am 06:15 Clear 31 -0.3 30 -1.1 94 94 NNW 6 9 30.21 1023 10 16 N/A
6:35 am 06:35 Clear 32 undefined 31 -0.8 94 94 NNW 6 9 30.21 1023 10 16 N/A
6:55 am 06:55 Clear 32 undefined 31 -0.7 95 95 WNW 6 9 30.21 1023 10 16 N/A
7:15 am 07:15 Clear 32 0.2 31 -0.5 95 95 N N/A 30.21 1023 10 16 N/A
7:35 am 07:35 Sunny 33 0.3 31 -0.3 96 96 W 3 6 30.24 1024 10 16 N/A
7:55 am 07:55 Partly Cloudy 33 0.8 32 undefined 94 94 WNW 5 7 30.24 1024 10 16 N/A
8:15 am 08:15 Mostly Cloudy 34 1.2 32 0.1 92 92 W 3 6 30.27 1025 10 16 N/A
8:35 am 08:35 Cloudy 35 1.7 33 0.6 93 93 W 5 7 30.27 1025 10 16 N/A
8:55 am 08:55 Cloudy 36 2.3 34 1.2 93 93 WNW 5 7 30.27 1025 10 16 N/A
9:15 am 09:15 Mostly Cloudy 37 2.7 35 1.5 92 92 WNW 6 9 30.27 1025 10 16 N/A
9:35 am 09:35 Cloudy 38 3.2 36 2 92 92 WNW 6 9 30.27 1025 10 16 N/A
9:55 am 09:55 Cloudy 39 3.7 36 2.4 91 91 WNW 3 6 30.27 1025 10 16 N/A
10:15 am 10:15 Mostly Cloudy 40 4.5 38 3.1 91 91 NW 5 7 30.27 1025 10 16 N/A
10:35 am 10:35 Mostly Cloudy 41 5.1 38 3.1 87 87 W 3 6 30.27 1025 10 16 N/A
10:55 am 10:55 Cloudy 42 5.5 38 3.2 85 85 W 6 9 30.24 1024 10 16 N/A
11:15 am 11:15 Mostly Cloudy 43 6.3 38 3.5 82 82 W 8 13 30.24 1024 10 16 N/A
11:35 am 11:35 Mostly Cloudy 44 6.7 38 3.5 80 80 WNW 7 11 30.24 1024 10 16 N/A
11:55 am 11:55 Mostly Cloudy 45 7 37 3 76 76 NW 6 9 30.24 1024 10 16 N/A
12:15 pm 12:15 Cloudy 45 7.2 37 2.8 74 74 WNW 8 13 30.24 1024 10 16 N/A
12:35 pm 12:35 Cloudy 45 7.4 37 2.6 72 72 WNW 7 11 30.24 1024 10 16 N/A
12:55 pm 12:55 Cloudy with Light Rain 45 7.3 37 2.9 74 74 NW 8 13 30.24 1024 10 16 N/A
1:15 pm 13:15 Cloudy with Light Rain 44 6.8 35 1.9 71 71 WNW 3 6 30.24 1024 10 16 N/A
1:35 pm 13:35 Cloudy with Light Rain 45 7.1 36 2.3 72 72 SW 6 9 30.24 1024 10 16 N/A
1:55 pm 13:55 Cloudy 45 7 37 2.5 73 73 W 8 13 30.24 1024 10 16 N/A
2:15 pm 14:15 Cloudy with Light Rain 45 7 36 2.3 72 72 W 7 11 30.24 1024 10 16 N/A
2:35 pm 14:35 Cloudy 45 7.1 37 2.6 73 73 WNW 6 9 30.24 1024 10 16 N/A
2:55 pm 14:55 Cloudy 46 7.9 38 3.3 73 73 WNW 7 11 30.24 1024 10 16 N/A
3:15 pm 15:15 Cloudy 45 7.4 37 3 74 74 NW 6 9 30.24 1024 10 16 N/A
3:35 pm 15:35 Cloudy 45 7.2 37 2.9 74 74 NW 7 11 30.24 1024 10 16 N/A
3:55 pm 15:55 Cloudy 45 7.2 38 3.1 75 75 WNW 6 9 30.24 1024 10 16 N/A
4:15 pm 16:15 Cloudy 45 7.2 38 3.2 76 76 WNW 7 11 30.24 1024 10 16 N/A
4:35 pm 16:35 Cloudy 45 7 38 3.1 76 76 WNW 5 7 30.24 1024 10 16 N/A
4:55 pm 16:55 Mostly Cloudy 44 6.7 38 3.4 80 80 W 6 9 30.24 1024 10 16 N/A
5:15 pm 17:15 Cloudy 44 6.5 38 3.5 81 81 W 3 6 30.24 1024 10 16 N/A
5:35 pm 17:35 Cloudy 43 6.3 38 3.3 81 81 W 5 7 30.27 1025 10 16 N/A
5:55 pm 17:55 Cloudy 43 6.2 38 3.2 81 81 WSW 5 7 30.27 1025 10 16 N/A
6:15 pm 18:15 Cloudy 43 6.2 38 3.3 82 82 W 6 9 30.30 1026 10 16 N/A
6:35 pm 18:35 Cloudy 43 6.2 38 3.4 82 82 WSW 5 7 30.30 1026 10 16 N/A
6:55 pm 18:55 Mostly Cloudy 43 6.2 38 3.3 82 82 WSW 6 9 30.30 1026 10 16 N/A
7:15 pm 19:15 Clear 42 5.5 37 2.8 83 83 WSW 5 7 30.30 1026 10 16 N/A
7:35 pm 19:35 Clear 40 4.5 36 2.2 85 85 SW 6 9 30.36 1028 10 16 N/A
7:55 pm 19:55 Clear 39 3.9 36 2 88 88 WSW 3 6 30.36 1028 10 16 N/A
8:15 pm 20:15 Clear 38 3.5 35 1.7 88 88 SW 5 7 30.36 1028 10 16 N/A
8:35 pm 20:35 Clear 37 2.5 33 0.8 89 89 N N/A 30.39 1029 10 16 N/A
8:55 pm 20:55 Clear 36 2 33 0.3 89 89 W 3 6 30.39 1029 10 16 N/A
9:15 pm 21:15 Clear 34 1.1 32 undefined 92 92 W 5 7 30.39 1029 10 16 N/A
9:35 pm 21:35 Clear 33 0.6 32 -0.2 94 94 W 5 7 30.42 1030 10 16 N/A
9:55 pm 21:55 Clear 32 undefined 31 -0.7 95 95 WNW 6 9 30.45 1031 10 16 N/A
10:15 pm 22:15 Clear 32 -0.1 30 -0.9 94 94 WNW 6 9 30.45 1031 10 16 N/A
10:35 pm 22:35 Clear 32 undefined 30 -0.9 94 94 WNW 5 7 30.45 1031 10 16 N/A
10:55 pm 22:55 Clear 32 -0.1 31 -0.8 95 95 WNW 6 9 30.45 1031 10 16 N/A
11:15 pm 23:15 Clear 31 -0.4 30 -1.1 95 95 NW 5 7 30.45 1031 10 16 N/A
11:35 pm 23:35 Clear 29 -1.5 28 -2.2 95 95 NW 6 9 30.45 1031 10 16 N/A
11:55 pm 23:55 Clear 31 -0.8 29 -1.5 95 95 WNW 6 9 30.45 1031 10 16 N/A

Powered by AerisWeather